"Pseudo-MPEC" for P22p4I7

Created 2026 Aug 10 11:35:18 UT using Find_Orb

Click here for an explanation of pseudo-MPECs

 
 Astrometry: 
     P22p4I7*0C2026 08 09.51372300 32 23.386+12 19 41.12   ~89Eo 21.29wXNEOCPF52
     P22p4I7 0C2026 08 09.52456400 32 24.450+12 19 37.77   ~89Eo 21.15wXNEOCPF52
     P22p4I7 0C2026 08 09.53553600 32 25.536+12 19 34.34   ~89Eo 21.10wXNEOCPF52
     P22p4I7 0C2026 08 09.54654500 32 26.616+12 19 30.96   ~89Eo 21.18wXNEOCPF52
     P22p4I7 0C2026 08 09.62334000 32 34.212+12 19 06.30   ~89H5 20.93GVNEOCPF51
     P22p4I7 0C2026 08 09.62416000 32 34.289+12 19 06.09   ~89H5 20.95GVNEOCPF51
     P22p4I7 KB2026 08 09.97364 00 33 11.39 +12 17 05.7    ~8A1K 19.1 VZNEOCP106
     P22p4I7 KB2026 08 09.97901 00 33 11.94 +12 17 03.8    ~8A1K 19.3 VZNEOCP106
     P22p4I7 KB2026 08 09.98437 00 33 12.49 +12 17 02.5    ~8A1K 19.1 VZNEOCP106
     P22p4I7 KB2026 08 09.98961 00 33 13.04 +12 17 00.5    ~8A1K 19.5 VZNEOCP106

Station data:
(106) Črni Vrh  (N45.945905 E14.071100)  Slovenia.  Observer J. Skvarč. 0.6-m
   f/3.3 Deltagraph + CCD.
(F51) Pan-STARRS 1, Haleakala  (N20.707234 W156.255910)  US/Hawaii.
   Observers J. Herman, T. Lowe, P. Minguez, A. Schultz, I. Smith. Measurers
   K. Chambers, T. de Boer, J. Fairlamb, H. Gao, M. Huber, C.-C. Lin, E.
   Magnier, Y. Ramanjooloo, R. Wainscoat, R. Weryk. 1.8-m Ritchey-Chrétien +
   CCD.
(F52) Pan-STARRS 2, Haleakala  (N20.707382 W156.255910)  US/Hawaii.
   Observers J. Herman, T. Lowe, P. Minguez, A. Schultz, I. Smith. Measurers
   K. Chambers, T. de Boer, J. Fairlamb, H. Gao, M. Huber, C.-C. Lin, E.
   Magnier, Y. Ramanjooloo, R. Wainscoat, R. Weryk. 1.8-m Ritchey-Chrétien +
   CCD.

Orbital elements:  P22p4I7
   Perihelion 2026 Nov 30.234200 +/- 48.9 TT =  5:37:14.9 (JD 2461374.734200)
Epoch 2026 Aug 10.0 TT = JDT 2461262.5   Earth MOID: 0.2539   Ma: 0.0010
M 313.781323908 +/- 18              (J2000 ecliptic)             AutoNEOCP
n   0.411805634 +/- 0.163           Peri.  260.486038 +/- 60
a   1.789264421 +/- 0.472           Node   169.958617 +/- 3.9
e   0.40761980 +/- 0.218            Incl.   18.435539 +/- 9
P   2.393/874.182d         H 18.85  G  0.15   U 11.5  SR
q 1.059924803 +/- 0.423    Q 2.518604039 +/- 3.29
From 10 observations 2026 Aug. 9 (11.4 hr); mean residual 0".18
Residuals in arcseconds: 
260809 F52  .28+  .07-    260809 F51  .22-  .04+    260809 106  .17+  .21+    
260809 F52  .11+  .04-    260809 F51  .28-  .10+    260809 106  .45+  .08-    
260809 F52  .08+  .03-    260809 106  .01+  .09-    
260809 F52  .08-  .05+    260809 106  .08+  .24-    

Ephemerides (geocentric):
Date (UTC) HH   RA             Dec           delta  r     elong  mag " sig PA
---- --------  ------------   ------------  ------ ------ -----  --- --------
2026 08 10 12  00 34 05.880   +12 14 11.99  .68561 1.5114 124.5 20.3 9.14  74
2026 08 10 13  00 34 10.233   +12 13 57.18  .68512 1.5112 124.5 20.3 10.2  74
2026 08 10 14  00 34 14.587   +12 13 42.30  .68464 1.5110 124.5 20.3 11.4  75
2026 08 10 15  00 34 18.942   +12 13 27.35  .68415 1.5107 124.6 20.3 12.5  75
2026 08 10 16  00 34 23.297   +12 13 12.34  .68367 1.5105 124.6 20.3 13.8  75
2026 08 10 17  00 34 27.654   +12 12 57.26  .68319 1.5102 124.6 20.3 15.1  75
2026 08 10 18  00 34 32.011   +12 12 42.11  .68270 1.5100 124.6 20.3 16.5  76
2026 08 10 19  00 34 36.368   +12 12 26.89  .68222 1.5098 124.7 20.3 17.9  76
2026 08 10 20  00 34 40.727   +12 12 11.60  .68173 1.5095 124.7 20.3 19.4  76
2026 08 10 21  00 34 45.087   +12 11 56.25  .68125 1.5093 124.7 20.3 21.0  76
2026 08 10 22  00 34 49.447   +12 11 40.82  .68077 1.5090 124.7 20.3 22.6  76
2026 08 10 23  00 34 53.808   +12 11 25.33  .68028 1.5088 124.8 20.3 24.3  76
2026 08 11 00  00 34 58.170   +12 11 09.77  .67980 1.5086 124.8 20.3 26.0  76
2026 08 11 01  00 35 02.532   +12 10 54.14  .67932 1.5083 124.8 20.3 27.8  77
2026 08 11 02  00 35 06.896   +12 10 38.44  .67883 1.5081 124.8 20.3 29.7  77
2026 08 11 03  00 35 11.260   +12 10 22.68  .67835 1.5078 124.9 20.3 31.6  77
2026 08 11 04  00 35 15.625   +12 10 06.84  .67787 1.5076 124.9 20.3 33.6  77
2026 08 11 05  00 35 19.991   +12 09 50.94  .67739 1.5074 124.9 20.3 35.7  77
2026 08 11 06  00 35 24.358   +12 09 34.96  .67690 1.5071 124.9 20.3 37.8  77
2026 08 11 07  00 35 28.726   +12 09 18.92  .67642 1.5069 125.0 20.3 40.0  77
2026 08 11 08  00 35 33.094   +12 09 02.81  .67594 1.5066 125.0 20.3 42.2  77
2026 08 11 09  00 35 37.463   +12 08 46.62  .67546 1.5064 125.0 20.3 44.5  77
2026 08 11 10  00 35 41.833   +12 08 30.37  .67498 1.5062 125.0 20.3 46.9  77
2026 08 11 11  00 35 46.204   +12 08 14.05  .67450 1.5059 125.1 20.3 49.3  77
2026 08 11 12  00 35 50.576   +12 07 57.66  .67402 1.5057 125.1 20.3 51.8  77
2026 08 11 13  00 35 54.948   +12 07 41.20  .67353 1.5055 125.1 20.3 54.3  77
2026 08 11 14  00 35 59.322   +12 07 24.66  .67305 1.5052 125.2 20.3 57.0  77
2026 08 11 15  00 36 03.696   +12 07 08.06  .67257 1.5050 125.2 20.3 59.6  77
2026 08 11 16  00 36 08.071   +12 06 51.39  .67209 1.5047 125.2 20.3 62.4  77
2026 08 11 17  00 36 12.447   +12 06 34.65  .67161 1.5045 125.2 20.3 65.2  77
2026 08 11 18  00 36 16.823   +12 06 17.83  .67113 1.5043 125.3 20.3 68.1  77
2026 08 11 19  00 36 21.201   +12 06 00.95  .67065 1.5040 125.3 20.3 71.0  77
2026 08 11 20  00 36 25.579   +12 05 43.99  .67017 1.5038 125.3 20.3 74.0  77
2026 08 11 21  00 36 29.959   +12 05 26.97  .66969 1.5035 125.3 20.3 77.1  77
2026 08 11 22  00 36 34.339   +12 05 09.87  .66921 1.5033 125.4 20.3 80.2  77
2026 08 11 23  00 36 38.720   +12 04 52.70  .66873 1.5031 125.4 20.3 83.5  77
2026 08 12 00  00 36 43.101   +12 04 35.46  .66826 1.5028 125.4 20.3 86.7  77
2026 08 12 01  00 36 47.484   +12 04 18.15  .66778 1.5026 125.4 20.2 90.1  77
2026 08 12 02  00 36 51.868   +12 04 00.77  .66730 1.5023 125.5 20.2 93.5  77
2026 08 12 03  00 36 56.252   +12 03 43.31  .66682 1.5021 125.5 20.2 96.9  77
2026 08 12 04  00 37 00.637   +12 03 25.79  .66634 1.5019 125.5 20.2  100  77
2026 08 12 05  00 37 05.023   +12 03 08.19  .66586 1.5016 125.5 20.2  104  77
2026 08 12 06  00 37 09.410   +12 02 50.52  .66538 1.5014 125.6 20.2  108  77
2026 08 12 07  00 37 13.798   +12 02 32.78  .66491 1.5011 125.6 20.2  111  77
2026 08 12 08  00 37 18.187   +12 02 14.97  .66443 1.5009 125.6 20.2  115  77
2026 08 12 09  00 37 22.576   +12 01 57.08  .66395 1.5007 125.7 20.2  119  77
2026 08 12 10  00 37 26.967   +12 01 39.13  .66347 1.5004 125.7 20.2  123  77
2026 08 12 11  00 37 31.358   +12 01 21.10  .66300 1.5002 125.7 20.2  127  77